カタログに戻る

STARLINK-37969

運用中通信SSO
NORAD 69710·PAYLOAD·🇺🇸 United States

打ち上げ Jun 28, 2026 から Vandenberg Space Force Base

Loading…

次のパス (今後24時間)

TLE

最新Source: CelesTrak SupGP

元期: Sep 15, 2026, 03:47 UTC

1 69710C 26147G   26258.15812500 -.00045787  00000+0 -14215-2 0  2583
2 69710  97.2837 294.5579 0001449  86.7209 242.4503 15.33459342    12

AllMySatでSTARLINK-37969をリアルタイム追跡

Download on the App Store